JBU39 KFLL-MROC

Flight info

Callsign JBU39
Flight time 2h 42m
Altitude 35000
Route REGAE2 URSUS UL780 LEPEG/N0461F370 UL780 TASNO/N0466F360 DCT SELEK/N0461F370 UZ403 PIRAS
Aircraft A320/M-SDE3FGHIRWY/LB1

Departure

Time 2026-05-04 17:09
Airport Fort Lauderdale Hollywood International Airport (KFLL)

Arrival

Time 2026-05-04 19:51
Airport Juan Santamaría International Airport (MROC)
Time Latitude Longitude Altitude Speed Heading
2026-05-04 16:42 26.07149 -80.14730 16 ft 0 kts 161°
2026-05-04 16:55 26.07171 -80.14741 17 ft 4 kts 141°
2026-05-04 16:55 26.07183 -80.14789 18 ft 3 kts 47°
2026-05-04 16:56 26.07155 -80.14834 17 ft 4 kts 83°
2026-05-04 16:56 26.07175 -80.14855 17 ft 1 kts 180°
2026-05-04 17:01 26.07170 -80.14855 19 ft 2 kts 180°
2026-05-04 17:02 26.07103 -80.14856 18 ft 8 kts 179°
2026-05-04 17:02 26.06986 -80.14759 16 ft 13 kts 158°
2026-05-04 17:03 26.06920 -80.14798 17 ft 11 kts 233°
2026-05-04 17:03 26.06911 -80.14877 16 ft 10 kts 272°
2026-05-04 17:03 26.06913 -80.15028 16 ft 9 kts 270°
2026-05-04 17:04 26.06862 -80.15131 16 ft 9 kts 180°
2026-05-04 17:04 26.06721 -80.15133 20 ft 8 kts 181°
2026-05-04 17:05 26.06697 -80.15220 21 ft 7 kts 274°
2026-05-04 17:05 26.06697 -80.15423 16 ft 16 kts 269°
2026-05-04 17:06 26.06697 -80.15669 16 ft 17 kts 270°
2026-05-04 17:06 26.06698 -80.15785 16 ft 10 kts 265°
2026-05-04 17:07 26.06672 -80.15818 16 ft 2 kts 194°
2026-05-04 17:07 26.06664 -80.15820 18 ft 6 kts 194°
2026-05-04 17:07 26.06587 -80.15773 19 ft 9 kts 87°
2026-05-04 17:07 26.06588 -80.15740 20 ft 0 kts 89°
2026-05-04 17:08 26.06590 -80.15595 23 ft 52 kts 89°
2026-05-04 17:08 26.06596 -80.13960 204 ft 135 kts 86°
2026-05-04 17:08 26.06605 -80.13275 554 ft 135 kts 85°
2026-05-04 17:09 26.06626 -80.12221 1017 ft 138 kts 86°
2026-05-04 17:09 26.06641 -80.11108 1447 ft 150 kts 86°
2026-05-04 17:09 26.06658 -80.09868 1681 ft 171 kts 86°
2026-05-04 17:10 26.06692 -80.06903 2094 ft 216 kts 88°
2026-05-04 17:10 26.06728 -80.01069 3418 ft 276 kts 90°
2026-05-04 17:11 26.06730 -79.98938 4264 ft 282 kts 91°
2026-05-04 17:11 26.06711 -79.96706 5167 ft 287 kts 91°
2026-05-04 17:11 26.06656 -79.92198 6844 ft 297 kts 92°
2026-05-04 17:12 26.06626 -79.89880 7620 ft 302 kts 92°
2026-05-04 17:12 26.06573 -79.85139 9199 ft 311 kts 92°
2026-05-04 17:13 26.05717 -79.77680 10579 ft 355 kts 102°
2026-05-04 17:14 26.04354 -79.69004 11865 ft 389 kts 101°
2026-05-04 17:14 26.03885 -79.66029 12490 ft 392 kts 103°
2026-05-04 17:14 26.01385 -79.60758 13723 ft 388 kts 140°
2026-05-04 17:15 25.99215 -79.59020 14266 ft 383 kts 158°
2026-05-04 17:15 25.94127 -79.57392 15303 ft 384 kts 171°
2026-05-04 17:16 25.88892 -79.56019 16347 ft 390 kts 171°
2026-05-04 17:16 25.80871 -79.53909 17946 ft 400 kts 171°
2026-05-04 17:17 25.78151 -79.53191 18430 ft 403 kts 171°
2026-05-04 17:17 25.69874 -79.51013 19845 ft 411 kts 172°
2026-05-04 17:18 25.67079 -79.50280 20324 ft 414 kts 172°
2026-05-04 17:18 25.61444 -79.48801 21235 ft 419 kts 172°
2026-05-04 17:19 25.55724 -79.47301 22099 ft 425 kts 172°
2026-05-04 17:19 25.49940 -79.45779 22938 ft 430 kts 172°
2026-05-04 17:20 25.44086 -79.44245 23727 ft 435 kts 172°
2026-05-04 17:20 25.38164 -79.42699 24403 ft 439 kts 172°
2026-05-04 17:20 25.35186 -79.41923 24744 ft 441 kts 172°
2026-05-04 17:21 25.29183 -79.40359 25421 ft 445 kts 172°
2026-05-04 17:21 25.23130 -79.38777 26089 ft 449 kts 172°
2026-05-04 17:22 25.20084 -79.37979 26431 ft 451 kts 172°
2026-05-04 17:22 25.17021 -79.37180 26769 ft 453 kts 172°
2026-05-04 17:23 25.07745 -79.34769 27759 ft 460 kts 172°
2026-05-04 17:23 25.04622 -79.33960 28087 ft 462 kts 172°
2026-05-04 17:23 24.98333 -79.32324 28829 ft 465 kts 172°
2026-05-04 17:24 24.95190 -79.31505 29325 ft 463 kts 172°
2026-05-04 17:24 24.85805 -79.29058 30685 ft 461 kts 173°
2026-05-04 17:25 24.82687 -79.28247 31112 ft 460 kts 173°
2026-05-04 17:25 24.76465 -79.26645 31939 ft 458 kts 173°
2026-05-04 17:26 24.70274 -79.25046 32791 ft 456 kts 173°
2026-05-04 17:26 24.61029 -79.22644 34188 ft 453 kts 174°
2026-05-04 17:27 24.54913 -79.21072 34917 ft 451 kts 175°
2026-05-04 17:27 24.48775 -79.19506 35044 ft 456 kts 175°
2026-05-04 17:28 24.42584 -79.17911 35047 ft 458 kts 174°
2026-05-04 17:29 24.23970 -79.13119 35039 ft 458 kts 175°
2026-05-04 17:31 24.08468 -79.09156 35034 ft 459 kts 175°
2026-05-04 17:32 23.92905 -79.07142 35043 ft 444 kts 189°
2026-05-04 17:33 23.80547 -79.07419 35044 ft 445 kts 189°
2026-05-04 17:34 23.68204 -79.07687 35042 ft 445 kts 189°
2026-05-04 17:35 23.52893 -79.08043 35045 ft 446 kts 189°
2026-05-04 17:36 23.46681 -79.08175 35045 ft 446 kts 189°
2026-05-04 17:36 23.40467 -79.08309 35048 ft 447 kts 189°
2026-05-04 17:37 23.34255 -79.08437 35049 ft 447 kts 189°
2026-05-04 17:37 23.28038 -79.08575 35047 ft 447 kts 189°
2026-05-04 17:38 23.21825 -79.08720 35050 ft 446 kts 189°
2026-05-04 17:38 23.15614 -79.08864 35048 ft 447 kts 189°
2026-05-04 17:39 23.06294 -79.09067 35043 ft 447 kts 189°
2026-05-04 17:39 23.00079 -79.09203 35045 ft 447 kts 189°
2026-05-04 17:40 22.93867 -79.09340 35043 ft 447 kts 189°
2026-05-04 17:40 22.87656 -79.09482 35045 ft 446 kts 189°
2026-05-04 17:41 22.81444 -79.09624 35042 ft 447 kts 188°
2026-05-04 17:41 22.75226 -79.09757 35039 ft 447 kts 188°
2026-05-04 17:42 22.69012 -79.09894 35037 ft 447 kts 188°
2026-05-04 17:42 22.62799 -79.10033 35038 ft 447 kts 188°
2026-05-04 17:43 22.56580 -79.10165 35036 ft 447 kts 188°
2026-05-04 17:43 22.50360 -79.10295 35037 ft 447 kts 188°
2026-05-04 17:44 22.44141 -79.10423 35030 ft 447 kts 188°
2026-05-04 17:44 22.37914 -79.10558 35027 ft 447 kts 188°
2026-05-04 17:45 22.31690 -79.10701 35025 ft 448 kts 188°
2026-05-04 17:45 22.25461 -79.10844 35023 ft 448 kts 188°
2026-05-04 17:46 22.19248 -79.11137 35021 ft 441 kts 196°
2026-05-04 17:46 22.16308 -79.11926 35021 ft 431 kts 207°
2026-05-04 17:46 22.13620 -79.13267 35019 ft 422 kts 217°
2026-05-04 17:47 22.09251 -79.17289 35019 ft 409 kts 235°
2026-05-04 17:47 22.06610 -79.21533 35021 ft 407 kts 240°
2026-05-04 17:48 22.03559 -79.26639 35022 ft 408 kts 240°
2026-05-04 17:48 22.00464 -79.31771 35027 ft 409 kts 240°
2026-05-04 17:49 21.97375 -79.36912 35030 ft 409 kts 240°
2026-05-04 17:49 21.94291 -79.42059 35034 ft 409 kts 240°
2026-05-04 17:50 21.91198 -79.47206 35038 ft 409 kts 240°
2026-05-04 17:50 21.88102 -79.52352 35051 ft 409 kts 240°
2026-05-04 17:51 21.85007 -79.57498 35039 ft 410 kts 240°
2026-05-04 17:51 21.81908 -79.62645 35047 ft 410 kts 240°
2026-05-04 17:52 21.78806 -79.67783 35043 ft 410 kts 240°
2026-05-04 17:52 21.75678 -79.72954 35045 ft 410 kts 240°
2026-05-04 17:53 21.72587 -79.78058 35047 ft 410 kts 240°
2026-05-04 17:53 21.69479 -79.83196 35033 ft 410 kts 240°
2026-05-04 17:54 21.66377 -79.88341 35049 ft 410 kts 240°
2026-05-04 17:54 21.63258 -79.93482 35045 ft 410 kts 240°
2026-05-04 17:55 21.60137 -79.98619 35041 ft 410 kts 240°
2026-05-04 17:55 21.57019 -80.03757 35046 ft 411 kts 240°
2026-05-04 17:56 21.53900 -80.08899 35040 ft 411 kts 240°
2026-05-04 17:56 21.50769 -80.14035 35043 ft 411 kts 240°
2026-05-04 17:57 21.47636 -80.19178 35041 ft 412 kts 240°
2026-05-04 17:57 21.44501 -80.24329 35052 ft 412 kts 240°
2026-05-04 17:58 21.41365 -80.29470 35051 ft 412 kts 240°
2026-05-04 17:58 21.38219 -80.34617 35049 ft 412 kts 240°
2026-05-04 17:59 21.35071 -80.39757 35043 ft 412 kts 240°
2026-05-04 18:00 21.30354 -80.47476 35046 ft 413 kts 240°
2026-05-04 18:00 21.27211 -80.52619 35044 ft 413 kts 240°
2026-05-04 18:01 21.24052 -80.57768 35051 ft 413 kts 240°
2026-05-04 18:01 21.20895 -80.62909 35045 ft 413 kts 240°
2026-05-04 18:02 21.16160 -80.70620 35041 ft 413 kts 240°
2026-05-04 18:02 21.13002 -80.75755 35045 ft 413 kts 240°
2026-05-04 18:03 21.09835 -80.80889 35044 ft 413 kts 240°
2026-05-04 18:03 21.06668 -80.86029 35044 ft 414 kts 240°
2026-05-04 18:04 21.03496 -80.91168 35044 ft 414 kts 240°
2026-05-04 18:05 20.98729 -80.98881 35045 ft 414 kts 240°
2026-05-04 18:05 20.95552 -81.04024 35041 ft 414 kts 240°
2026-05-04 18:06 20.90776 -81.11732 35042 ft 415 kts 240°
2026-05-04 18:06 20.87597 -81.16874 35044 ft 415 kts 240°
2026-05-04 18:07 20.84410 -81.22019 35043 ft 415 kts 240°
2026-05-04 18:07 20.81219 -81.27165 35043 ft 415 kts 240°
2026-05-04 18:08 20.78024 -81.32305 35043 ft 415 kts 239°
2026-05-04 18:08 20.74822 -81.37441 35041 ft 416 kts 239°
2026-05-04 18:09 20.68418 -81.47732 35042 ft 416 kts 239°
2026-05-04 18:10 20.65207 -81.52877 35042 ft 416 kts 239°
2026-05-04 18:10 20.61993 -81.58022 35041 ft 417 kts 239°
2026-05-04 18:11 20.58777 -81.63169 35041 ft 417 kts 239°
2026-05-04 18:11 20.55563 -81.68318 35043 ft 417 kts 239°
2026-05-04 18:12 20.52344 -81.73462 35042 ft 417 kts 239°
2026-05-04 18:12 20.49115 -81.78611 35044 ft 417 kts 239°
2026-05-04 18:13 20.45885 -81.83753 35040 ft 418 kts 239°
2026-05-04 18:14 20.41041 -81.91483 35039 ft 418 kts 239°
2026-05-04 18:14 20.37801 -81.96626 35041 ft 418 kts 239°
2026-05-04 18:15 20.31321 -82.06923 35044 ft 419 kts 239°
2026-05-04 18:16 20.28070 -82.12071 35042 ft 419 kts 239°
2026-05-04 18:16 20.24823 -82.17225 35037 ft 419 kts 239°
2026-05-04 18:17 20.19950 -82.24958 35034 ft 419 kts 239°
2026-05-04 18:18 20.15060 -82.32681 35045 ft 420 kts 239°
2026-05-04 18:18 20.11700 -82.37771 35040 ft 423 kts 232°
2026-05-04 18:18 20.09557 -82.39933 35031 ft 429 kts 221°
2026-05-04 18:19 20.04133 -82.42743 35026 ft 445 kts 199°
2026-05-04 18:19 19.98044 -82.44132 35016 ft 448 kts 198°
2026-05-04 18:20 19.91945 -82.45508 35020 ft 448 kts 198°
2026-05-04 18:20 19.85842 -82.46892 35025 ft 449 kts 198°
2026-05-04 18:21 19.79735 -82.48278 35030 ft 449 kts 198°
2026-05-04 18:21 19.73627 -82.49666 35031 ft 449 kts 198°
2026-05-04 18:22 19.67506 -82.51052 35032 ft 449 kts 198°
2026-05-04 18:22 19.61394 -82.52436 35033 ft 449 kts 197°
2026-05-04 18:23 19.55282 -82.53822 35031 ft 449 kts 197°
2026-05-04 18:23 19.49160 -82.55206 35033 ft 449 kts 197°
2026-05-04 18:24 19.43048 -82.56583 35033 ft 449 kts 197°
2026-05-04 18:24 19.36936 -82.57955 35036 ft 449 kts 197°
2026-05-04 18:25 19.30824 -82.59331 35033 ft 449 kts 197°
2026-05-04 18:25 19.24702 -82.60712 35034 ft 449 kts 197°
2026-05-04 18:26 19.18589 -82.62094 35035 ft 449 kts 197°
2026-05-04 18:26 19.12472 -82.63471 35031 ft 450 kts 197°
2026-05-04 18:27 19.07381 -82.64616 35028 ft 450 kts 197°
2026-05-04 18:27 19.01257 -82.65987 35031 ft 450 kts 197°
2026-05-04 18:28 18.95134 -82.67363 35028 ft 450 kts 197°
2026-05-04 18:28 18.88996 -82.68741 35027 ft 451 kts 197°
2026-05-04 18:29 18.82862 -82.70113 35026 ft 451 kts 197°
2026-05-04 18:29 18.76724 -82.71484 35025 ft 451 kts 197°
2026-05-04 18:30 18.67504 -82.73548 35025 ft 452 kts 197°
2026-05-04 18:31 18.61357 -82.74927 35026 ft 452 kts 197°
2026-05-04 18:31 18.55206 -82.76302 35024 ft 452 kts 197°
2026-05-04 18:32 18.49041 -82.77674 35024 ft 452 kts 197°
2026-05-04 18:32 18.42885 -82.79049 35022 ft 452 kts 197°
2026-05-04 18:33 18.36727 -82.80422 35023 ft 453 kts 197°
2026-05-04 18:33 18.30557 -82.81799 35026 ft 453 kts 197°
2026-05-04 18:34 18.24395 -82.83165 35024 ft 453 kts 197°
2026-05-04 18:34 18.18233 -82.84534 35024 ft 453 kts 197°
2026-05-04 18:35 18.12070 -82.85906 35022 ft 453 kts 197°
2026-05-04 18:35 18.05897 -82.87278 35022 ft 453 kts 197°
2026-05-04 18:36 17.99753 -82.88644 35021 ft 453 kts 196°
2026-05-04 18:36 17.93575 -82.90007 35020 ft 453 kts 196°
2026-05-04 18:37 17.87471 -82.91356 35022 ft 453 kts 196°
2026-05-04 18:37 17.81264 -82.92734 35020 ft 453 kts 197°
2026-05-04 18:38 17.75096 -82.94111 35022 ft 453 kts 196°
2026-05-04 18:38 17.68923 -82.95473 35018 ft 454 kts 196°
2026-05-04 18:39 17.62747 -82.96836 35019 ft 454 kts 196°
2026-05-04 18:39 17.56560 -82.98203 35013 ft 454 kts 196°
2026-05-04 18:40 17.50379 -82.99558 35016 ft 454 kts 196°
2026-05-04 18:40 17.44157 -83.00931 35014 ft 454 kts 196°
2026-05-04 18:41 17.38007 -83.02294 35014 ft 454 kts 196°
2026-05-04 18:41 17.31820 -83.03658 35013 ft 455 kts 195°
2026-05-04 18:42 17.25628 -83.05012 35013 ft 455 kts 195°
2026-05-04 18:42 17.19392 -83.06376 35011 ft 455 kts 195°
2026-05-04 18:43 17.13198 -83.07748 35013 ft 455 kts 195°
2026-05-04 18:43 17.07031 -83.09103 35012 ft 455 kts 195°
2026-05-04 18:44 17.00788 -83.10476 35011 ft 456 kts 195°
2026-05-04 18:44 16.94581 -83.11836 35007 ft 456 kts 195°
2026-05-04 18:45 16.88368 -83.13195 35006 ft 457 kts 195°
2026-05-04 18:45 16.82181 -83.14545 35003 ft 457 kts 195°
2026-05-04 18:46 16.75917 -83.15917 35006 ft 457 kts 195°
2026-05-04 18:46 16.69688 -83.17278 35004 ft 458 kts 195°
2026-05-04 18:47 16.63456 -83.18638 35006 ft 458 kts 195°
2026-05-04 18:47 16.57211 -83.20002 35007 ft 458 kts 194°
2026-05-04 18:48 16.50975 -83.21362 35010 ft 458 kts 194°
2026-05-04 18:48 16.44772 -83.22718 35011 ft 458 kts 194°
2026-05-04 18:49 16.38491 -83.24089 35006 ft 458 kts 194°
2026-05-04 18:49 16.32282 -83.25440 35007 ft 458 kts 194°
2026-05-04 18:50 16.26042 -83.26799 35006 ft 458 kts 194°
2026-05-04 18:50 16.19754 -83.28171 35008 ft 458 kts 194°
2026-05-04 18:51 16.13561 -83.29520 35006 ft 458 kts 194°
2026-05-04 18:51 16.07330 -83.30870 35007 ft 457 kts 194°
2026-05-04 18:52 16.01099 -83.32204 35010 ft 457 kts 194°
2026-05-04 18:52 15.94826 -83.33517 35010 ft 457 kts 194°
2026-05-04 18:53 15.88629 -83.34821 35006 ft 457 kts 194°
2026-05-04 18:53 15.82403 -83.36131 35008 ft 457 kts 194°
2026-05-04 18:54 15.76136 -83.37453 35002 ft 457 kts 193°
2026-05-04 18:54 15.69910 -83.38768 35002 ft 457 kts 193°
2026-05-04 18:55 15.63715 -83.40072 35003 ft 457 kts 193°
2026-05-04 18:55 15.54367 -83.42019 34999 ft 457 kts 193°
2026-05-04 18:56 15.48139 -83.43332 34994 ft 457 kts 193°
2026-05-04 18:56 15.41865 -83.44652 34989 ft 457 kts 193°
2026-05-04 18:57 15.35623 -83.45964 34985 ft 458 kts 193°
2026-05-04 18:57 15.29375 -83.47263 34973 ft 458 kts 193°
2026-05-04 18:58 15.23122 -83.48565 34972 ft 459 kts 193°
2026-05-04 18:58 15.16856 -83.49874 34963 ft 459 kts 193°
2026-05-04 18:59 15.10599 -83.51189 34962 ft 459 kts 193°
2026-05-04 18:59 15.04338 -83.52504 34958 ft 459 kts 193°
2026-05-04 19:00 14.98063 -83.53815 34955 ft 460 kts 193°
2026-05-04 19:00 14.91794 -83.55120 34951 ft 460 kts 193°
2026-05-04 19:01 14.85525 -83.56429 34949 ft 460 kts 193°
2026-05-04 19:01 14.79255 -83.57736 34942 ft 460 kts 193°
2026-05-04 19:02 14.72983 -83.59040 34934 ft 460 kts 193°
2026-05-04 19:02 14.66704 -83.60349 34937 ft 460 kts 194°
2026-05-04 19:03 14.60440 -83.61661 34940 ft 459 kts 193°
2026-05-04 19:03 14.54177 -83.62959 34945 ft 459 kts 193°
2026-05-04 19:04 14.47911 -83.64250 34938 ft 459 kts 193°
2026-05-04 19:04 14.42721 -83.65328 34932 ft 458 kts 193°
2026-05-04 19:05 14.36466 -83.66632 34928 ft 458 kts 193°
2026-05-04 19:05 14.30221 -83.67928 34930 ft 458 kts 193°
2026-05-04 19:06 14.23976 -83.69225 34934 ft 458 kts 193°
2026-05-04 19:06 14.17728 -83.70516 34931 ft 458 kts 193°
2026-05-04 19:07 14.11534 -83.71803 34925 ft 458 kts 193°
2026-05-04 19:07 14.05359 -83.73087 34922 ft 459 kts 193°
2026-05-04 19:08 13.99089 -83.74380 34923 ft 459 kts 193°
2026-05-04 19:08 13.92859 -83.75669 34919 ft 459 kts 193°
2026-05-04 19:09 13.86590 -83.76971 34925 ft 459 kts 193°
2026-05-04 19:09 13.80298 -83.78272 34922 ft 459 kts 193°
2026-05-04 19:10 13.74035 -83.79560 34926 ft 459 kts 193°
2026-05-04 19:10 13.67777 -83.80849 34929 ft 459 kts 193°
2026-05-04 19:11 13.61517 -83.82144 34933 ft 459 kts 193°
2026-05-04 19:11 13.55258 -83.83446 34934 ft 459 kts 193°
2026-05-04 19:12 13.45872 -83.85384 34936 ft 459 kts 193°
2026-05-04 19:13 13.39612 -83.86669 34940 ft 459 kts 193°
2026-05-04 19:13 13.33345 -83.87956 34941 ft 459 kts 193°
2026-05-04 19:14 13.27080 -83.89238 34934 ft 459 kts 193°
2026-05-04 19:14 13.20821 -83.90525 34942 ft 459 kts 193°
2026-05-04 19:15 13.14560 -83.91813 34938 ft 459 kts 193°
2026-05-04 19:15 13.08302 -83.93098 34947 ft 459 kts 193°
2026-05-04 19:16 13.02047 -83.94382 34947 ft 458 kts 193°
2026-05-04 19:16 12.95785 -83.95670 34956 ft 458 kts 192°
2026-05-04 19:17 12.89539 -83.96948 34959 ft 458 kts 192°
2026-05-04 19:17 12.83289 -83.98227 34953 ft 458 kts 192°
2026-05-04 19:18 12.77049 -83.99512 34955 ft 457 kts 192°
2026-05-04 19:18 12.70872 -84.00779 34952 ft 457 kts 192°
2026-05-04 19:19 12.64635 -84.02047 34949 ft 457 kts 192°
2026-05-04 19:19 12.58432 -84.03311 34948 ft 457 kts 192°
2026-05-04 19:20 12.52164 -84.04596 34947 ft 456 kts 192°
2026-05-04 19:20 12.45978 -84.05861 34951 ft 456 kts 192°
2026-05-04 19:21 12.39752 -84.07137 34953 ft 456 kts 192°
2026-05-04 19:21 12.33535 -84.08405 34957 ft 456 kts 192°
2026-05-04 19:22 12.27319 -84.09670 34953 ft 455 kts 192°
2026-05-04 19:22 12.21103 -84.10939 34944 ft 455 kts 192°
2026-05-04 19:23 12.14909 -84.12200 34945 ft 455 kts 192°
2026-05-04 19:23 12.08700 -84.13463 34943 ft 455 kts 192°
2026-05-04 19:24 12.02496 -84.14731 34951 ft 455 kts 192°
2026-05-04 19:24 11.96286 -84.15995 34948 ft 455 kts 192°
2026-05-04 19:25 11.90085 -84.17257 34954 ft 454 kts 192°
2026-05-04 19:25 11.83885 -84.18524 34949 ft 455 kts 192°
2026-05-04 19:26 11.77632 -84.19796 34952 ft 455 kts 192°
2026-05-04 19:26 11.71425 -84.21053 34945 ft 455 kts 192°
2026-05-04 19:27 11.65244 -84.22310 34946 ft 456 kts 192°
2026-05-04 19:27 11.59027 -84.23572 34945 ft 456 kts 192°
2026-05-04 19:28 11.52809 -84.24829 34942 ft 456 kts 191°
2026-05-04 19:28 11.46588 -84.26087 34944 ft 456 kts 191°
2026-05-04 19:29 11.40358 -84.27353 34947 ft 456 kts 191°
2026-05-04 19:29 11.34141 -84.28620 34944 ft 456 kts 191°
2026-05-04 19:30 11.27926 -84.29876 34954 ft 455 kts 191°
2026-05-04 19:30 11.21716 -84.31134 34940 ft 455 kts 191°
2026-05-04 19:31 11.15508 -84.32387 34940 ft 455 kts 191°
2026-05-04 19:31 11.09292 -84.33643 34939 ft 455 kts 191°
2026-05-04 19:32 11.03087 -84.34901 34923 ft 455 kts 191°
2026-05-04 19:32 10.96882 -84.36163 34929 ft 455 kts 191°
2026-05-04 19:33 10.90680 -84.37440 34929 ft 455 kts 193°
2026-05-04 19:33 10.84638 -84.39382 34927 ft 455 kts 198°
2026-05-04 19:34 10.78628 -84.41375 34925 ft 454 kts 198°
2026-05-04 19:34 10.72616 -84.43377 34485 ft 456 kts 198°
2026-05-04 19:34 10.69565 -84.44393 33361 ft 467 kts 198°
2026-05-04 19:35 10.66454 -84.45427 32308 ft 474 kts 198°
2026-05-04 19:35 10.63304 -84.46472 31358 ft 478 kts 198°
2026-05-04 19:35 10.60132 -84.47526 30453 ft 481 kts 198°
2026-05-04 19:35 10.56949 -84.48581 29470 ft 483 kts 199°
2026-05-04 19:36 10.53744 -84.49643 28361 ft 485 kts 199°
2026-05-04 19:36 10.50545 -84.50702 27719 ft 479 kts 199°
2026-05-04 19:36 10.47432 -84.51731 27591 ft 461 kts 199°
2026-05-04 19:36 10.44435 -84.52722 27447 ft 445 kts 199°
2026-05-04 19:37 10.41530 -84.53685 27077 ft 435 kts 199°
2026-05-04 19:37 10.38669 -84.54634 26576 ft 430 kts 199°
2026-05-04 19:37 10.35835 -84.55575 26026 ft 427 kts 199°
2026-05-04 19:37 10.33025 -84.56510 25488 ft 423 kts 199°
2026-05-04 19:38 10.30239 -84.57439 24961 ft 420 kts 199°
2026-05-04 19:38 10.27469 -84.58361 24446 ft 418 kts 199°
2026-05-04 19:38 10.24713 -84.59274 23943 ft 415 kts 199°
2026-05-04 19:38 10.21976 -84.60180 23510 ft 412 kts 199°
2026-05-04 19:39 10.19288 -84.61069 23348 ft 400 kts 199°
2026-05-04 19:39 10.16614 -84.61640 23213 ft 389 kts 185°
2026-05-04 19:39 10.13961 -84.61473 23053 ft 379 kts 169°
2026-05-04 19:39 10.11498 -84.60636 22461 ft 371 kts 153°
2026-05-04 19:40 10.09416 -84.59396 21787 ft 367 kts 149°
2026-05-04 19:40 10.07244 -84.58056 21095 ft 363 kts 149°
2026-05-04 19:40 10.05124 -84.56698 20421 ft 358 kts 142°
2026-05-04 19:40 10.03314 -84.54993 19781 ft 353 kts 129°
2026-05-04 19:41 10.01818 -84.53038 19134 ft 349 kts 126°
2026-05-04 19:41 10.00361 -84.51097 18523 ft 344 kts 126°
2026-05-04 19:41 9.98921 -84.49171 17872 ft 340 kts 126°
2026-05-04 19:41 9.97500 -84.47273 17206 ft 336 kts 126°
2026-05-04 19:42 9.96093 -84.45397 16551 ft 332 kts 127°
2026-05-04 19:42 9.94699 -84.43541 15925 ft 328 kts 127°
2026-05-04 19:42 9.93324 -84.41712 15313 ft 324 kts 127°
2026-05-04 19:42 9.91966 -84.39905 14727 ft 321 kts 127°
2026-05-04 19:43 9.90622 -84.38115 14146 ft 317 kts 127°
2026-05-04 19:43 9.89299 -84.36355 13734 ft 306 kts 127°
2026-05-04 19:43 9.88122 -84.34632 13458 ft 291 kts 116°
2026-05-04 19:43 9.87560 -84.32699 13005 ft 285 kts 95°
2026-05-04 19:44 9.87719 -84.30727 12493 ft 281 kts 74°
2026-05-04 19:44 9.88388 -84.28871 11953 ft 279 kts 70°
2026-05-04 19:44 9.89079 -84.27038 11449 ft 277 kts 70°
2026-05-04 19:44 9.89769 -84.25203 10777 ft 281 kts 70°
2026-05-04 19:45 9.90453 -84.23374 10098 ft 272 kts 70°
2026-05-04 19:45 9.90898 -84.22176 9620 ft 264 kts 69°
2026-05-04 19:45 9.91524 -84.20468 8952 ft 253 kts 70°
2026-05-04 19:45 9.92122 -84.18827 8312 ft 244 kts 70°
2026-05-04 19:46 9.92699 -84.17237 7694 ft 237 kts 70°
2026-05-04 19:46 9.93255 -84.15712 7120 ft 230 kts 69°
2026-05-04 19:46 9.93806 -84.14205 6663 ft 219 kts 69°
2026-05-04 19:46 9.94320 -84.12799 6412 ft 205 kts 68°
2026-05-04 19:47 9.94927 -84.11586 6148 ft 190 kts 51°
2026-05-04 19:47 9.95876 -84.10703 5877 ft 178 kts 31°
2026-05-04 19:47 9.96943 -84.10224 5672 ft 158 kts 15°
2026-05-04 19:47 9.97994 -84.10088 5459 ft 148 kts 359°
2026-05-04 19:48 9.99003 -84.10236 5275 ft 147 kts 345°
2026-05-04 19:48 9.99930 -84.10643 5096 ft 144 kts 328°
2026-05-04 19:48 10.00707 -84.11276 4899 ft 144 kts 313°
2026-05-04 19:48 10.01290 -84.12095 4697 ft 143 kts 298°
2026-05-04 19:49 10.01634 -84.13029 4502 ft 140 kts 282°
2026-05-04 19:49 10.01732 -84.14008 4313 ft 139 kts 269°
2026-05-04 19:49 10.01584 -84.14968 4109 ft 139 kts 256°
2026-05-04 19:49 10.01253 -84.15879 3919 ft 141 kts 249°
2026-05-04 19:50 10.00881 -84.16813 3792 ft 138 kts 254°
2026-05-04 19:50 10.00544 -84.17722 3583 ft 136 kts 251°
2026-05-04 19:50 10.00237 -84.18639 3372 ft 142 kts 249°
2026-05-04 19:50 9.99870 -84.19591 3129 ft 154 kts 246°
2026-05-04 19:51 9.99510 -84.20544 3034 ft 126 kts 250°
2026-05-04 19:51 9.99266 -84.21211 2999 ft 76 kts 250°
2026-05-04 19:51 9.99140 -84.21550 2982 ft 29 kts 249°
2026-05-04 19:51 9.99110 -84.21696 2975 ft 15 kts 311°
2026-05-04 19:52 9.99139 -84.21713 2973 ft 0 kts 333°
2026-05-04 20:00 9.99140 -84.21714 2973 ft 2 kts 333°
2026-05-04 20:00 9.99178 -84.21716 2970 ft 4 kts 54°
2026-05-04 20:00 9.99187 -84.21695 2970 ft 3 kts 70°
2026-05-04 20:01 9.99205 -84.21645 2973 ft 13 kts 70°
2026-05-04 20:01 9.99247 -84.21529 2980 ft 18 kts 69°
2026-05-04 20:01 9.99283 -84.21433 2988 ft 11 kts 69°
2026-05-04 20:01 9.99304 -84.21380 2993 ft 5 kts 69°
2026-05-04 20:02 9.99314 -84.21353 2995 ft 5 kts 68°
2026-05-04 20:02 9.99333 -84.21304 2998 ft 10 kts 69°
2026-05-04 20:02 9.99364 -84.21220 3003 ft 15 kts 69°
2026-05-04 20:02 9.99406 -84.21106 3009 ft 17 kts 71°
2026-05-04 20:03 9.99437 -84.21010 3025 ft 11 kts 72°
2026-05-04 20:03 9.99454 -84.20957 3028 ft 5 kts 70°
2026-05-04 20:03 9.99459 -84.20948 3028 ft 0 kts 63°